DW6083 Weather Reports


time (UTC)temp
C
wind
direction
speed
KPH
gust
KPH
rain 1hr
cm
rain 24hr
cm
rain mn
cm
humidity
%
barometer
mb
20260906083033 -17 169 0.0 0.0 0.00 0.00 0.00 1010.8
20260906081539 -17 169 0.0 0.0 0.00 0.00 0.00 1010.7
20260906080018 -17 169 0.0 0.0 0.00 0.00 0.00 1010.8
20260906074514 -17 169 0.0 0.0 0.00 0.00 0.00 1010.7
20260906073009 -17 169 0.0 0.0 0.00 0.00 0.00 1010.7
20260906071504 -17 169 0.0 0.0 0.00 0.00 0.00 1010.5
20260906070100 -17 169 0.0 0.0 0.00 0.00 0.00 1010.9
20260906064556 -17 169 0.0 0.0 0.00 0.00 0.00 1010.9
20260906063052 -17 169 0.0 0.0 0.00 0.00 0.00 1011.3
20260906061547 -17 169 0.0 0.0 0.00 0.00 0.00 1011.5
20260906060043 -17 169 0.0 0.0 0.00 0.00 0.00 1011.7
20260906054538 -17 169 0.0 0.0 0.00 0.00 0.00 1012.0
20260906053034 -17 169 0.0 0.0 0.00 0.00 0.00 1012.2
20260906051528 -17 169 0.0 0.0 0.00 0.00 0.00 1012.3
20260906050024 -17 169 0.0 0.0 0.00 0.00 0.00 1012.2
20260906044527 -17 169 0.0 1.6 0.00 0.00 0.00 1012.3
20260906043016 -17 169 0.0 0.0 0.00 0.00 0.00 1012.2
20260906041511 -17 169 0.0 0.0 0.00 0.00 0.00 1012.1
20260906040005 -17 169 0.0 1.6 0.00 0.00 0.00 1012.2
20260906034504 -17 169 0.0 0.0 0.00 0.00 0.00 1012.1
20260906033004 -17 169 0.0 0.0 0.00 0.00 0.00 1012.1
20260906031503 -17 169 0.0 0.0 0.00 0.00 0.00 1012.1
20260906030003 -17 169 0.0 0.0 0.00 0.00 0.00 1012.2
20260906024501 -17 169 0.0 0.0 0.00 0.00 0.00 1012.2
20260906023001 -17 169 0.0 0.0 0.00 0.00 0.00 1012.5
20260906021607 -17 169 0.0 0.0 0.00 0.00 0.00 1012.4
20260906020106 -17 169 0.0 0.0 0.00 0.00 0.00 1012.2
20260906014601 -17 169 0.0 1.6 0.00 0.00 0.00 1012.1
20260906013100 -17 169 0.0 0.0 0.00 0.00 0.00 1012.0
20260906011600 -17 169 0.0 0.0 0.00 0.00 0.00 1012.0
20260906010106 -17 169 0.0 0.0 0.00 0.00 0.00 1011.5
20260906004603 -17 169 0.0 0.0 0.00 0.00 0.00 1011.4
20260906003100 -17 169 0.0 0.0 0.00 0.00 0.00 1011.1
20260906001609 -17 169 0.0 1.6 0.00 0.00 0.00 1011.0
20260906000056 -17 169 0.0 0.0 0.00 0.00 0.00 1011.3
20260905234557 -17 169 0.0 1.6 0.00 0.00 0.00 1011.2
20260905233108 -17 169 0.0 1.6 0.00 0.00 0.00 1011.4
20260905231553 -17 169 0.0 1.6 0.00 0.00 0.00 1011.3
20260905230052 -17 169 0.0 0.0 0.00 0.00 0.00 1011.7
20260905224546 -17 169 0.0 1.6 0.00 0.00 0.00 1011.8
20260905223043 -17 169 0.0 0.0 0.00 0.00 0.00 1011.7
20260905221543 -17 135 0.0 1.6 0.00 0.00 0.00 1011.5
20260905220029 -17 135 0.0 1.6 0.00 0.00 0.00 1011.1
20260905214524 -17 134 0.0 1.6 0.00 0.00 0.00 1010.5
20260905213021 -17 134 0.0 1.6 0.00 0.00 0.00 1010.3
20260905211534 -17 134 0.0 16.1 0.00 0.00 0.00 1010.9
20260905210010 -17 185 4.8 24.1 0.00 0.00 0.00 1011.7
20260905204509 -17 76 19.3 49.9 0.00 0.00 0.00 1011.3
20260905203002 -17 157 6.4 11.3 0.00 0.00 0.00 1010.7
20260905201605 -17 157 0.0 9.7 0.00 0.00 0.00 1009.8
20260905200115 -17 157 3.2 9.7 0.00 0.00 0.00 1009.9
20260905194548 -17 157 3.2 9.7 0.00 0.00 0.00 1010.2
20260905193046 -17 157 0.0 9.7 0.00 0.00 0.00 1010.2
20260905191542 -17 157 3.2 8.0 0.00 0.00 0.00 1010.4
20260905190037 -17 157 1.6 12.9 0.00 0.00 0.00 1010.5
20260905184536 -17 157 4.8 11.3 0.00 0.00 0.00 1010.8
20260905183027 -17 157 4.8 12.9 0.00 0.00 0.00 1011.1
20260905181522 -17 159 6.4 12.9 0.00 0.00 0.00 1011.4
20260905180017 -17 159 1.6 4.8 0.00 0.00 0.00 1011.7
20260905174513 -17 159 1.6 9.7 0.00 0.00 0.00 1011.8
20260905173010 -17 159 3.2 8.0 0.00 0.00 0.00 1012.0
20260905171513 -17 159 3.2 14.5 0.00 0.00 0.00 1012.2
20260905170100 -17 158 1.6 11.3 0.00 0.00 0.00 1012.5
20260905164555 -17 159 3.2 8.0 0.00 0.00 0.00 1012.9
20260905163052 -17 159 4.8 11.3 0.00 0.00 0.00 1013.1
20260905161549 -17 158 3.2 9.7 0.00 0.00 0.00 1013.3
20260905160052 -17 158 1.6 9.7 0.00 0.00 0.00 1013.3
20260905154555 -17 159 4.8 11.3 0.00 0.00 0.00 1013.5
20260905153046 -17 159 6.4 11.3 0.00 0.00 0.00 1013.6
20260905153017 -17 158 4.8 11.3 0.00 0.00 0.00 1013.6
20260905151545 -17 158 4.8 11.3 0.00 0.00 0.00 1013.7
20260905150113 -17 159 3.2 12.9 0.00 0.00 0.00 1013.9
20260905144550 -17 159 3.2 9.7 0.00 0.00 0.00 1014.1
20260905143019 -17 158 6.4 12.9 0.00 0.00 0.00 1014.1
20260905141503 -17 158 3.2 8.0 0.00 0.00 0.00 1014.2
20260905140052 -17 158 1.6 9.7 0.00 0.00 0.00 1014.2
20260905134623 -17 158 0.0 4.8 0.00 0.00 0.00 1014.2
20260905133058 -17 158 3.2 12.9 0.00 0.00 0.00 1014.3
20260905131525 -17 148 0.0 1.6 0.00 0.00 0.00 1014.4
20260905123124 -17 148 0.0 1.6 0.00 0.00 0.00 1014.3
20260905121624 -17 148 0.0 1.6 0.00 0.00 0.00 1014.2
20260905120014 -17 148 0.0 0.0 0.00 0.00 0.00 1014.0
20260905103003 -17 148 0.0 0.0 0.00 0.00 0.00 1013.4
20260905101555 -17 148 0.0 0.0 0.00 0.00 0.00 1013.4
20260905100031 -17 148 0.0 0.0 0.00 0.00 0.00 1013.3
20260905094644 -17 148 0.0 0.0 0.00 0.00 0.00 1013.2
20260905091504 -17 148 0.0 0.0 0.00 0.00 0.00 1013.3
20260905090003 -17 148 0.0 0.0 0.00 0.00 0.00 1013.3
20260905084643 -17 148 0.0 0.0 0.00 0.00 0.00 1013.3